Location: Val-d'Or
(48.1170°N, 77.7670°W)
Time: 06:16:40
(UTC-04:00)

ISS - Pass Details

Date: 25 May 2018
Orbit: 402 x 407 km, 51.6° (Epoch: 24 May)

Event Time Altitude Azimuth Distance (km) Brightness Sun altitude
Rises 23:46:52 0° 283° (WNW) 2,320 0.5 -18.4°
Reaches altitude 10° 23:49:00 10° 290° (WNW) 1,460 -0.5 -18.5°
Maximum altitude 23:52:09 43° 4° (N) 576 -2.7 -18.7°
Enters shadow 23:55:04 12° 77° (ENE) 1,371 -1.2 -18.9°
